Regional Weather Roundup
Issued by NWS

Home | Current Version | Previous Version | Text Only | Print | Product List | Glossary Off
Versions: 1 2 3 4 5 6 7 8 9 10 11 12 13 14 15 16 17 18 19 20 21 22 23 24 25 26 27 28 29 30 31 32 33 34 35 36 37 38 39 40 41 42 43 44 45 46 47 48 49 50

000
ASUS45 KBOI 271910
RWRID
WEATHER ROUNDUP FOR IDAHO
NATIONAL WEATHER SERVICE BOISE ID
1200 PM MST SAT DEC 27 2014

NOTE: "FAIR" INDICATES FEW OR NO CLOUDS BELOW 12000 FEET
WITH NO SIGNIFICANT WEATHER AND/OR OBSTRUCTIONS TO VISIBILITY

IDZ012-014-272000-
SOUTHWEST IDAHO


CITY           SKY/WX    TMP DP  RH WIND       PRES   REMARKS
BOISE          CLOUDY    29  17  61 SE10      30.32F WCI  20
CALDWELL       PTSUNNY   30  18  59 NE10      30.35F WCI  21
MOUNTAIN HOME  PTSUNNY   29  22  74 E12       30.32F WCI  19
$$

IDZ016-017-272000-
SOUTHCENTRAL IDAHO


CITY           SKY/WX    TMP DP  RH WIND       PRES   REMARKS
BURLEY         CLOUDY    27  16  63 SW12      30.27F WCI  17
JEROME         CLOUDY    24  18  77 CALM      30.30F
TWIN FALLS     CLOUDY    30  15  53 S16       30.28F WCI  19
$$

IDZ019>023-272000-
SOUTHEAST IDAHO


CITY           SKY/WX    TMP DP  RH WIND       PRES   REMARKS
IDAHO FALLS    CLOUDY    14  11  87 N3        30.27F FOG
POCATELLO      CLOUDY    26  18  71 SW10      30.28F WCI  16
REXBURG        CLOUDY    14  11  87 CALM      30.26F
$$

IDZ006-010-011-018-031-032-272000-
CENTRAL IDAHO MOUNTAINS


CITY           SKY/WX    TMP DP  RH WIND       PRES   REMARKS
MCCALL         LGT SNOW  17  14  88 CALM      30.19F FOG
HAILEY         CLOUDY    14   3  62 NW6       30.24F WCI   5
STANLEY          N/A      1  -5  75 CALM      30.19F
SALMON         PTSUNNY   21   7  53 E5        30.21F WCI  15
CHALLIS        CLOUDY    12   4  70 SW3       30.22F
$$

IDZ002-004-006-007-026-272000-
NORTHERN IDAHO


CITY           SKY/WX    TMP DP  RH WIND       PRES   REMARKS
LEWISTON       CLOUDY    35  28  75 VRB5      30.17F WCI  31
LOWELL           N/A     34  29  82 CALM      30.27F
COEUR D`ALENE  CLOUDY    32  28  86 S8        30.10F WCI  25
MULLAN PASS    LGT SNOW  22  17  81 VRB5      29.97F VSB 3/4 WCI  16
$$


USA.gov is the U.S. government's official web portal to all federal, state and local government web resources and services.